This is the latest recevied weather packets stored in our database for station/object N3WXO-1. If no packets are shown the sender has not sent any weather packets the latest 10 day(s).
| Time | Temp. | Humidity | Pressure | Rain* | Wind** | Luminosity | Snow |
|---|---|---|---|---|---|---|---|
| 1777905925 | 17.22° C | 42% | 1012.9 hPa | 0 mm | - | 726 W/m² | - |
| 1777905646 | 17.22° C | 42% | 1013 hPa | 0 mm | - | 710 W/m² | - |
| 1777905330 | 16.67° C | 43% | 1013 hPa | 0 mm | - | 701 W/m² | - |
| 1777905025 | 16.67° C | 46% | 1012.9 hPa | 0 mm | - | 513 W/m² | - |
| 1777904721 | 16.11° C | 45% | 1013 hPa | 0 mm | - | 766 W/m² | - |
| 1777904434 | 16.11° C | 45% | 1013.1 hPa | 0 mm | - | 353 W/m² | - |
| 1777904127 | 16.11° C | 46% | 1013.1 hPa | 0 mm | - | 643 W/m² | - |
| 1777903819 | 15.56° C | 49% | 1013.2 hPa | 0 mm | - | 673 W/m² | - |
| 1777903529 | 15.56° C | 46% | 1013.2 hPa | 0 mm | - | 643 W/m² | - |
| 1777903227 | 15° C | 51% | 1013.3 hPa | 0 mm | - | 628 W/m² | - |
| 1777902924 | 15° C | 51% | 1013.3 hPa | 0 mm | - | 613 W/m² | - |
| 1777902637 | 14.44° C | 53% | 1013.4 hPa | 0 mm | - | 601 W/m² | - |
| 1777902333 | 13.89° C | 54% | 1013.4 hPa | 0 mm | - | 617 W/m² | - |
| 1777902029 | 13.89° C | 53% | 1013.4 hPa | 0 mm | - | 181 W/m² | - |
| 1777901723 | 13.33° C | 58% | 1013.4 hPa | 0 mm | - | 582 W/m² | - |
| 1777901419 | 12.78° C | 57% | 1013.4 hPa | 0 mm | - | 582 W/m² | - |
| 1777901120 | 12.78° C | 59% | 1013.5 hPa | 0 mm | - | 325 W/m² | - |
| 1777900835 | 12.22° C | 59% | 1013.6 hPa | 0 mm | - | 204 W/m² | - |
| 1777900530 | 11.67° C | 61% | 1013.6 hPa | 0 mm | - | 290 W/m² | - |
| 1777900225 | 11.11° C | 67% | 1013.6 hPa | 0 mm | - | 204 W/m² | - |
| 1777899919 | 10.56° C | 67% | 1013.6 hPa | 0 mm | - | 234 W/m² | - |
| 1777899633 | 10° C | 68% | 1013.7 hPa | 0 mm | - | 178 W/m² | - |
| 1777899331 | 10° C | 69% | 1013.8 hPa | 0 mm | - | 174 W/m² | - |
| 1777899029 | 9.44° C | 71% | 1013.9 hPa | 0 mm | - | 192 W/m² | - |
| 1777898723 | 8.33° C | 74% | 1014 hPa | 0 mm | - | 186 W/m² | - |
* Rain latest hour (hover to see other rain measurements)
** Current wind speed in m/s (hover to see current wind gust speed)